Regional Weather Roundup
Issued by NWS Charleston, SC

Current Version | Previous Version | Graphics & Text | Print | Product List | Glossary On
Versions: 1 2 3 4 5 6 7 8 9 10 11 12 13 14 15 16 17 18 19 20 21 22 23 24 25 26 27 28 29 30 31 32 33 34 35 36 37 38 39 40 41 42 43 44 45 46 47 48 49 50
000
ASUS42 KCHS 220810
RWRCHS

REGIONAL WEATHER ROUNDUP
NATIONAL WEATHER SERVICE CHARLESTON SC
400 AM EDT FRI AUG 22 2014

NOTE: "FAIR" INDICATES FEW OR NO CLOUDS BELOW 12,000 FEET WITH NO
SIGNIFICANT WEATHER AND/OR OBSTRUCTIONS TO VISIBILITY.

NOT ALL STATIONS ARE QUALITY CONTROLLED BY THE NATIONAL
WEATHER SERVICE. USE DATA WITH CAUTION...ESPECIALLY
DEWPOINT OBSERVATIONS.

SCZ027-030-031-034>040-042>050-220900-
...SOUTH CAROLINA...

CITY           SKY/WX    TMP DP  RH WIND       PRES   REMARKS
N CHARLESTON   CLEAR     81  77  88 CALM      30.03S
WATERFRONT PRK   N/A     82 N/A N/A SW5         N/A
FORT JOHNSON   NOT AVBL
MOUNT PLEASANT FAIR      79  79 100 CALM      30.03S FOG
JOHNS ISLAND   SUNNY     81  81 100 CALM      30.03S HX  91
PINOPOLIS        N/A     82  77  83 SW7       29.94F HX  91
MONCKS CORNER    N/A     77  77 100 CALM      30.02F
SUMMERVILLE    NOT AVBL
BEAUFORT MCAS  CLEAR     79  76  90 CALM      30.03S
BEAUFORT ARPT  FAIR      79  79 100 CALM      30.02F
HILTON HEAD IS CLEAR     79  79 100 CALM      30.04S FOG
GEORGETOWN     NOT AVBL
WALTERBORO     MOSUNNY   77 N/A N/A CALM      30.04S
ORANGEBURG     CLEAR     74  71  91 CALM      30.03F
BARNWELL       FAIR      73  70  88 CALM      30.05S
AIKEN          FAIR      73  70  88 SW3       30.08S
MANNING        FAIR      73 N/A N/A CALM      30.02F
KINGSTREE      NOT AVBL
COLUMBIA       CLEAR     76  69  79 SW3       30.02F
SUMTER         CLEAR     77  71  83 W1        30.01F
FLORENCE       CLEAR     75  70  84 CALM      30.01F
MYRTLE BEACH   PTCLDY    79  75  89 W5        30.02F
N MYRTLE BEACH PTCLDY    76  75  97 W3        30.01F

$$

GAZ063-065-086>088-099>101-113>116-118-119-134-136>141-150-220900-
...GEORGIA...

CITY           SKY/WX    TMP DP  RH WIND       PRES   REMARKS
SAVANNAH ARPT  NOT AVBL
HUNTER AAF     CLEAR     78  76  95 CALM      30.01F
FORT STEWART   CLEAR     73  70  89 CALM      30.02S
STATESBORO     NOT AVBL
SYLVANIA       SUNNY     73  73  98 CALM      30.05S
CLAXTON        FAIR     N/A N/A N/A CALM      30.04F
THOMSON        CLEAR     73  73 100 CALM      30.10F
AUGUSTA-BUSH   CLEAR     73  70  90 S3        30.03F
AUGUSTA-DANIEL CLEAR     82  67  60 CALM      30.05F
SWAINSBORO     FAIR      77  77 100 CALM      30.06S
VIDALIA          N/A     77  72  83 CALM      30.05F
ALMA           CLEAR     75  71  87 CALM      30.04F
WAYCROSS       CLEAR     78  74  88 W3        30.05S
JESUP            N/A     75  73  94 CALM      30.04S
BRUNSWICK      CLEAR     77  72  83 W5        30.04S
SAINT SIMONS   CLEAR     78  73  84 W6        30.03F

$$

SCZ027-028-034-036>038-045-046-048>050-GAZ119-141-220900-
...LAKE AND SUPPLEMENTAL COASTAL OBSERVATIONS...

STATION/POSITION TIME  TEMP    WIND        PRES    WAVE   SWELL
                       AIR SEA DIR/SP/G            HT/PER HT/PER/DIR
                 (UTC) (F)     (DEG/KT/KT) (MB)    (FT/S) (FT/S/D)
UPR LAKE MARION  NOT AVBL
WINYAH BAY       0700   81     220/  2     1016.0S
LAKE MURRAY      0700   83      CALM  /  3 1016.3F
ACE BASIN NERRS  0700   79        CALM     1017.0S
FORT PULASKI     0800   81     240/  3/  4 1017.0F
SAPELO ISLAND    0700   81     270/  3     1017.0F

$$

ANZ835-935-AMZ111-154-330-350-352-354-374-450-454-472-220900-
...C-MAN AND BUOY OBSERVATIONS...

STATION/POSITION TIME  TEMP    WIND        PRES    WAVE   SWELL
                       AIR SEA DIR/SP/G            HT/PER HT/PER/DIR
                 (UTC) (F)     (DEG/KT/KT) (MB)    (FT/S) (FT/S/D)
FOLLY BEACH CMAN 0700   83     240/  4/  4 1017.4F
BUOY 41004       0800   84 84  240/ 10/ 12 1015.9F   2/ 8   2/ 8
BUOY 41008       0800   84 85  260/  8/  8 1016.5F   2/ 3   2/130/ 8
5E ST. MARYS GA  0800      83                N/A     2/ 3
FRYING PAN BUOY  NOT AVBL
BUOY 41025       0800   81     240/ 10/ 12 1014.8F   2/ 9   2/ 30/ 9
CAPE LOOKOUT NC  0700   81     260/  9/ 11 1015.8F
BUOY 41002       0658   81 83  240/ 12/ 14 1017.2F   2/ 9   2/130/ 9
BUOY 41010       0800   84 86  190/  6/  8 1017.9F   2/ 8   2/120/ 8
BUOY 41012       NOT AVBL
ST AUGUSTINE FL  0800   77     270/  5/  5 1018.2F
CAPERS NEARSHORE 0700   84     240/ 12/ 14   N/A
FRIPP NEARSHORE  NOT AVBL


$$



USA.gov is the U.S. government's official web portal to all federal, state and local government web resources and services.